Weather History for KGBG - March, 2012

Change the Weather History Date:

Saturday, March 17, 2012

  Actual Average Record
Temperature  
Mean Temperature 71 °F -  
Max Temperature 82 °F 46 °F 82 °F (2012)
Min Temperature 60 °F 28 °F 11 °F (1981)
Cooling Degree Days 6    
Growing Degree Days 21 (Base 50)    
Moisture  
Dew Point 55 °F    
Average Humidity 61    
Maximum Humidity 85    
Minimum Humidity 39    
Precipitation  
Precipitation 0.00 in - - ()
Sea Level Pressure  
Sea Level Pressure 29.99 in    
Wind  
Wind Speed 8 mph (SE)    
Max Wind Speed 20 mph    
Max Gust Speed 28 mph    
Visibility 10 miles    
Events Thunderstorm    
Averages and records for this station are not official NWS values.
T = Trace of Precipitation, MM = Missing Value Source: NWS Daily Summary

Daily Weather History Graph

Daily Weather History Graph

Search for Another Location

Airport or City:

Trip Planner

Search our weather history database for the weather conditions in past years. The results will help you decide how hot, cold, wet, or windy it might be!

Date:

Astronomy

Mar. 17, 2012 Rise Set
Actual Time 7:09 AM CDT 7:11 PM CDT
Civil Twilight 6:41 AM CDT 7:38 PM CDT
Nautical Twilight 6:09 AM CDT 8:10 PM CDT
Astronomical Twilight 5:37 AM CDT 8:43 PM CDT
Moon 4:12 AM CDT (3/17) 2:33 PM CDT (3/17)
Length of Visible Light 12h 56m
Length of Day
12h 01m
Waning Crescent, 23% of the Moon is Illuminated
Mar 17
Waning Crescent
Mar 22
New
Mar 30
First Quarter
Apr 6
Full
Apr 13
Last Quarter

Hourly Weather History & Observations

Time (CDT) Temp. Heat Index Dew Point Humidity Pressure Visibility Wind Dir Wind Speed Gust Speed Precip Events Conditions
12:15 AM 65.8 °F - 55.2 °F 69% 30.01 in 10.0 mi SSE 9.2 mph - N/A   Mostly Cloudy
12:35 AM 65.8 °F - 55.0 °F 68% 30.01 in 10.0 mi SE 9.2 mph - N/A   Mostly Cloudy
12:55 AM 65.5 °F - 55.0 °F 69% 30.01 in 10.0 mi SSE 8.1 mph - N/A   Scattered Clouds
1:15 AM 65.1 °F - 55.0 °F 70% 30.00 in 10.0 mi SE 8.1 mph - N/A   Scattered Clouds
1:35 AM 64.8 °F - 55.4 °F 72% 30.00 in 10.0 mi SSE 9.2 mph - N/A   Scattered Clouds
1:55 AM 64.4 °F - 55.6 °F 73% 30.00 in 10.0 mi SE 8.1 mph - N/A   Scattered Clouds
2:15 AM 64.4 °F - 55.8 °F 73% 30.01 in 10.0 mi SE 6.9 mph - N/A   Clear
2:35 AM 63.9 °F - 55.8 °F 75% 30.01 in 10.0 mi SE 6.9 mph - N/A   Scattered Clouds
2:55 AM 64.4 °F - 56.3 °F 75% 30.00 in 10.0 mi SE 6.9 mph - N/A   Overcast
3:15 AM 64.6 °F - 56.1 °F 74% 30.00 in 10.0 mi SE 6.9 mph - N/A   Mostly Cloudy
3:35 AM 64.6 °F - 56.3 °F 74% 30.00 in 10.0 mi SE 5.8 mph - N/A   Overcast
3:55 AM 64.6 °F - 56.3 °F 74% 30.00 in 10.0 mi SE 5.8 mph - N/A   Overcast
4:15 AM 64.4 °F - 56.3 °F 75% 30.00 in 10.0 mi ESE 5.8 mph - N/A   Mostly Cloudy
4:35 AM 63.5 °F - 56.3 °F 77% 30.01 in 10.0 mi SE 3.5 mph - N/A   Scattered Clouds
4:55 AM 63.3 °F - 56.3 °F 78% 30.01 in 10.0 mi SE 4.6 mph - N/A   Overcast
5:15 AM 62.6 °F - 56.3 °F 80% 30.01 in 10.0 mi ESE 5.8 mph - N/A Thunderstorm Scattered Clouds
5:35 AM 62.1 °F - 55.9 °F 80% 30.01 in 10.0 mi ESE 5.8 mph - N/A   Clear
5:55 AM 61.7 °F - 55.9 °F 81% 30.02 in 10.0 mi ESE 5.8 mph - N/A   Clear
6:15 AM 61.3 °F - 55.9 °F 82% 30.03 in 10.0 mi ESE 5.8 mph - N/A   Clear
6:35 AM 61.0 °F - 55.8 °F 83% 30.03 in 10.0 mi ESE 5.8 mph - N/A   Clear
6:55 AM 60.8 °F - 55.8 °F 83% 30.03 in 10.0 mi ESE 5.8 mph - N/A   Clear
7:15 AM 60.3 °F - 55.6 °F 85% 30.03 in 7.0 mi ESE 5.8 mph - N/A   Clear
7:35 AM 60.1 °F - 55.6 °F 85% 30.03 in 7.0 mi ESE 6.9 mph - N/A   Clear
7:55 AM 60.3 °F - 55.8 °F 85% 30.03 in 5.0 mi ESE 5.8 mph - N/A   Clear
8:15 AM 61.3 °F - 56.7 °F 85% 30.03 in 7.0 mi ESE 5.8 mph - N/A   Clear
8:35 AM 63.0 °F - 57.6 °F 82% 30.04 in 7.0 mi SE 8.1 mph - N/A   Clear
8:55 AM 64.4 °F - 57.9 °F 79% 30.04 in 7.0 mi SE 9.2 mph - N/A   Clear
9:15 AM 65.7 °F - 58.5 °F 78% 30.04 in 10.0 mi SE 9.2 mph - N/A   Clear
9:35 AM 67.8 °F - 59.0 °F 73% 30.04 in 10.0 mi SE 6.9 mph - N/A   Clear
9:55 AM 69.8 °F - 59.2 °F 69% 30.04 in 10.0 mi SSE 8.1 mph - N/A   Clear
10:15 AM 70.9 °F - 59.2 °F 66% 30.04 in 10.0 mi SE 8.1 mph - N/A   Clear
10:35 AM 72.5 °F - 59.2 °F 63% 30.04 in 10.0 mi SSE 8.1 mph - N/A   Clear
10:55 AM 73.6 °F - 59.4 °F 61% 30.04 in 10.0 mi SSE 9.2 mph - N/A   Clear
11:15 AM 75.2 °F - 59.4 °F 58% 30.03 in 10.0 mi SSE 8.1 mph - N/A   Clear
11:35 AM 76.1 °F - 58.8 °F 55% 30.03 in 10.0 mi SSE 9.2 mph - N/A   Clear
11:55 AM 77.5 °F - 58.8 °F 52% 30.02 in 10.0 mi SE 9.2 mph - N/A   Clear
12:15 PM 78.4 °F - 58.5 °F 50% 30.01 in 10.0 mi SSE 10.4 mph - N/A   Clear
12:35 PM 79.2 °F - 58.5 °F 49% 30.00 in 10.0 mi SSE 10.4 mph 16.1 mph N/A   Clear
12:55 PM 80.4 °F 80.7 °F 57.4 °F 45% 29.99 in 10.0 mi SSE 6.9 mph - N/A   Clear
1:15 PM 80.4 °F 80.8 °F 57.7 °F 46% 29.99 in 10.0 mi SSE 10.4 mph 18.4 mph N/A   Clear
1:35 PM 80.8 °F 81.1 °F 58.1 °F 46% 29.99 in 10.0 mi SSE 10.4 mph 18.4 mph N/A   Clear
1:55 PM 81.5 °F 81.5 °F 57.9 °F 44% 29.97 in 10.0 mi SSE 11.5 mph - N/A   Clear
2:15 PM 81.5 °F 81.3 °F 56.7 °F 42% 29.96 in 10.0 mi SSE 12.7 mph 19.6 mph N/A   Scattered Clouds
2:35 PM 82.4 °F 82.0 °F 57.0 °F 42% 29.95 in 10.0 mi SSE 12.7 mph 19.6 mph N/A   Scattered Clouds
2:55 PM 81.0 °F 80.7 °F 55.4 °F 41% 29.95 in 10.0 mi SSE 13.8 mph 24.2 mph N/A   Scattered Clouds
3:15 PM 82.6 °F 81.8 °F 55.6 °F 39% 29.94 in 10.0 mi SSE 17.3 mph 23.0 mph N/A   Scattered Clouds
3:35 PM 82.4 °F 81.7 °F 55.4 °F 39% 29.93 in 10.0 mi SSE 12.7 mph 18.4 mph N/A   Scattered Clouds
3:55 PM 82.4 °F 81.8 °F 55.8 °F 40% 29.93 in 10.0 mi SE 11.5 mph 20.7 mph N/A   Scattered Clouds
4:15 PM 81.5 °F 80.9 °F 54.3 °F 39% 29.93 in 10.0 mi SSE 17.3 mph 23.0 mph N/A   Scattered Clouds
4:35 PM 81.0 °F 80.6 °F 54.3 °F 40% 29.93 in 10.0 mi SSE 16.1 mph 21.9 mph N/A   Mostly Cloudy
4:55 PM 80.8 °F 80.5 °F 54.5 °F 40% 29.93 in 10.0 mi SSE 13.8 mph 20.7 mph N/A   Mostly Cloudy
5:15 PM 79.9 °F - 53.4 °F 40% 29.94 in 10.0 mi SSE 18.4 mph 27.6 mph N/A   Mostly Cloudy
5:35 PM 78.8 °F - 54.7 °F 43% 29.93 in 10.0 mi South 18.4 mph 26.5 mph N/A   Scattered Clouds
5:55 PM 78.3 °F - 55.2 °F 45% 29.92 in 10.0 mi South 15.0 mph 20.7 mph N/A   Clear
6:15 PM 75.4 °F - 55.6 °F 50% 29.93 in 10.0 mi South 19.6 mph 27.6 mph N/A   Scattered Clouds
6:35 PM 72.7 °F - 54.5 °F 53% 29.92 in 10.0 mi South 16.1 mph 20.7 mph N/A   Clear
6:55 PM 71.6 °F - 51.6 °F 49% 29.94 in 10.0 mi South 17.3 mph 20.7 mph N/A   Clear
7:15 PM 70.7 °F - 49.1 °F 46% 29.96 in 10.0 mi SSE 9.2 mph - N/A   Clear
7:35 PM 69.1 °F - 49.5 °F 50% 29.96 in 10.0 mi SE 8.1 mph - N/A   Clear
7:55 PM 68.2 °F - 49.5 °F 51% 29.96 in 10.0 mi ESE 8.1 mph - N/A   Clear
8:15 PM 67.8 °F - 49.5 °F 52% 29.95 in 10.0 mi SE 6.9 mph - N/A   Clear
8:35 PM 67.1 °F - 49.5 °F 53% 29.96 in 10.0 mi SE 3.5 mph - N/A   Clear
8:55 PM 68.0 °F - 48.2 °F 49% 29.96 in 10.0 mi ESE 5.8 mph - N/A   Clear
9:15 PM 68.0 °F - 48.2 °F 49% 29.96 in 10.0 mi SE 5.8 mph - N/A   Clear
9:35 PM 66.7 °F - 48.6 °F 52% 29.97 in 10.0 mi SE 4.6 mph - N/A   Clear
9:55 PM 64.6 °F - 49.5 °F 58% 29.98 in 10.0 mi SSE 4.6 mph - N/A   Clear
10:15 PM 63.7 °F - 49.5 °F 60% 29.99 in 10.0 mi SSE 3.5 mph - N/A   Clear
10:35 PM 63.5 °F - 49.3 °F 60% 29.99 in 10.0 mi SE 5.8 mph - N/A   Clear
10:55 PM 63.3 °F - 49.5 °F 61% 29.98 in 10.0 mi SE 5.8 mph - N/A   Clear
11:15 PM 63.0 °F - 49.6 °F 62% 29.98 in 10.0 mi SE 4.6 mph - N/A   Clear
11:35 PM 62.6 °F - 50.0 °F 63% 29.98 in 10.0 mi SE 4.6 mph - N/A   Clear
11:55 PM 62.1 °F - 50.4 °F 65% 29.98 in 10.0 mi SE 4.6 mph - N/A   Clear